Погода в Сосновском

Россия / Свердловская область     56°25′56″N   61°14′37″E
темп.,
°C
ветер,
м/с
пор.,
м/с
влажн.,
%
обл.,
%
осадки,
мм/ч
давл.,
гПа
погр.,
м
16 апреля, пт
пт1623:00+11з313790 0.0 1019330
02:00+9з3128792 0.0 1019257
05:00+8ссз3793100 0.0 1020178
08:00+5ссв5981100 0.0 1024550
11:00+5св4779100 0.0 1026663
14:00+7всв255796 0.0 1026985
17:00+9всв34395 0.0 10261437
20:00+5в23590 0.0 102743
17 апреля, сб
сб1723:00+3в22640 0.0 102828
02:00+1в11690 0.0 102710
05:000ююз11700 0.0 102710
08:00+4зюз01560 0.0 1027141
11:00+9з11410 0.0 1025952
14:00+11зсз24345 0.0 10231789
17:00+11сз46336 0.0 10212008
20:00+7зсз37555 0.0 1021150
18 апреля, вс
вс1823:00+4зсз410675 0.0 1021329
02:00+3зсз411765 0.0 1020425
05:00+2зсз413783 0.0 1020468
08:00+4сз6117465 0.0 10201076
11:00+2с7104374 0.2 10241317
14:00+3ссв6935100 0.0 10272296
17:00+2ссв673399 0.0 10292201
20:000св48392 0.0 1032414
19 апреля, пн
пн1923:00−2св48473 0.0 1034680
02:00−4всв46460 0.0 1036710
05:00−5всв35450 0.0 1038713
08:00−4всв34380 0.0 10391049
11:00−1всв34310 0.0 10391392
14:00+1всв34270 0.0 10381633
17:00+2всв23270 0.0 10381657
20:00−2вюв22420 0.0 103811
20 апреля, вт
вт2023:00−3ю11480 0.0 103912
02:00−4юз22514 0.0 103938
05:00−4зюз23525 0.0 103973
08:000з243665 0.0 1039345
11:00+4з33265 0.0 10371044
14:00+7зсз34255 0.0 10351431
17:00+9зсз35255 0.0 10341455
20:00+4з22465 0.0 103436